Simultaneous Nadir Overpasses (SNOs) Predictions

Prediction of SNOs between AQUA and NPP Satellite Orbit:

Table of predicted SNOs for the next 14.0 days since TLE Epoch: 1/1/2016
Index Date (AQUA) Time (AQUA) Lat,Lon (AQUA) SZA (AQUA ) Date (NPP) Time (NPP) Lat,Lon (NPP) SZA (NPP ) Distance(km) Time Diff (sec)
1 01/03/2016 20:13:11 64.85, 98.39 130.51 01/03/2016 20:11:58 64.93, 97.76 130.77 31.21 73
2 01/03/2016 20:59:41 -74.60, -79.63 58.83 01/03/2016 20:59:40 -74.60, -79.60 58.84 0.80 1
3 01/03/2016 21:46:46 80.62, 117.54 113.61 01/03/2016 21:47:59 80.36, 118.54 113.40 33.53 73
4 01/06/2016 12:26:59 73.67,-133.52 121.93 01/06/2016 12:26:06 73.68,-133.45 121.96 2.35 53
5 01/06/2016 13:16:04 -74.85, 36.89 59.30 01/06/2016 13:16:28 -74.84, 36.83 59.31 1.86 24
6 01/09/2016 04:43:18 74.11, -16.64 121.21 01/09/2016 04:42:50 74.12, -16.61 121.23 1.11 28
7 01/09/2016 05:32:23 -75.28, 153.92 60.03 01/09/2016 05:33:12 -75.27, 153.83 60.05 2.75 49
8 01/11/2016 20:15:05 -58.13, -86.54 44.22 01/11/2016 20:13:52 -58.27, -87.48 43.81 57.59 73
9 01/11/2016 20:59:31 74.79, 100.89 120.18 01/11/2016 20:59:28 74.79, 100.94 120.17 1.59 3
10 01/11/2016 21:48:39 -75.78, -88.75 60.90 01/11/2016 21:49:53 -75.77, -88.82 60.95 1.83 74
11 01/14/2016 12:26:52 -73.80, 46.79 59.15 01/14/2016 12:25:57 -73.81, 46.86 59.12 2.37 55




NCC Satellite Simultaneous Nadir Overpasses (SNOs) Prediction Service
